Location: Unspecified
(0.0000°N, 0.0000°E)
Time: 02:35:26
(UTC+00:00)

Vanguard 1 - Pass Details

Date: 10 December 2023
Orbit: 653 x 3826 km, 34.3° (Epoch: 22 February)

Event Time Altitude Azimuth Distance (km) Brightness Sun altitude
Rises 23:23:45 0° 312° (NW) 7,748 14.5 -66.0°
Enters shadow 23:26:36 - 313° (NW) 7,263 14.3 -66.2°
Reaches altitude 10° 23:28:57 10° 315° (NW) 6,863 - -66.3°
Maximum altitude 23:52:39 70° 36° (NE) 3,583 - -67.0°
Exits shadow 00:06:25 20° 114° (ESE) 4,580 13.4 -66.8°
Drops below altitude 10° 00:09:15 10° 117° (ESE) 5,109 13.8 -66.7°
Sets 00:12:26 0° 119° (ESE) 5,778 14.2 -66.6°
